Location: Fazenda Monte Alegre
(4.8500°S, 38.0333°W)
Time: 17:26:41
(UTC+00:00)

Cosmos 2278 Rocket - Pass Details

Date: 24 September 2020
Orbit: 841 x 845 km, 71.0° (Epoch: 24 October)

Event Time Altitude Azimuth Distance (km) Brightness Sun altitude
Rises 21:08:42 0° 187° (S) 3,401 5.5 -11.1°
Reaches altitude 10° 21:11:13 10° 181° (S) 2,463 4.7 -11.7°
Maximum altitude 21:16:42 52° 106° (ESE) 1,039 2.3 -13.1°
Drops below altitude 10° 21:22:09 10° 30° (NNE) 2,448 4.3 -14.4°
Sets 21:24:38 0° 25° (NNE) 3,379 5.1 -15.1°
